CZ-6A DEB

Satellite information

Favourite Embed

Satellite Type and Status

DEBRISIN ORBIT

Key statistics

Satellite CZ-6A DEB at a glance.

Uptime

908

Days in orbit

Revolutions

≈ 14.1

Per day

Orbit

SSO

Sun Synchronous Orbit

Inclination

98.8

Latest

Satellite identification and parameters

Extended collection of information and parameters for CZ-6A DEB.

Object identification

Identified? True

Debris? True

Object name: CZ-6A DEB

International designator: 2022-151PR

Object number (NORAD): 54639

Object ID (CCSDS): 54639

Country: PEOPLES REPUBLIC OF CHINA (PRC)

Current information (Y/N): Y

RCS size: SMALL

Orbital parameters

Period: 101.905 minutes

Inclination: 98.8073 deg

SMA: 7226.999 km

Apoapsis: 870.486 km

Periapsis: 827.241 km

RAAN: 131.0283 deg

Eccentricy: 0.0029919

Argument of periapsis: 42.0181 deg

Mean anomaly: 318.3279 deg

Mean motion: 14.13076959 rev/day

Mean motion (dot): 0.00000268 rev/day2

B* drag term: 0.0001659 1/REarth

Two-line elements (TLE)

Creation date: May 6, 2025, 3:54 a.m.

Reference frame: TEME

Reference center: EARTH

Epoch: May 5, 2025, 10:39 a.m. UTC

TLE line 0: 0 CZ-6A DEB

TLE line 1: 1 54639U 22151PR 25125.44378710 .00000268 00000-0 16590-3 0 9997

TLE line 2: 2 54639 98.8073 131.0283 0029919 42.0181 318.3279 14.13076959127714

Live tracking on map

Real-time ground track for satellite CZ-6A DEB.

In-orbit conjunctions

A list of the most updated potential collisions computed for object CZ-6A DEB.

Target Orbit TCA Probability of collision Miss distance Type
SL-3 R/B LEO 2025-04-12 16:34:09 0.0009306204 174.0 (m) ROCKET BODY
SOLRAD 1 (GREB) LEO 2024-10-09 21:24:50 0.002818803 42.0 (m) PAYLOAD

Associated space launch

Chinese satellite reported for atmospheric/ocean/environmental/spatial parameter research purposes, details TBD.

CZ-6A DEB was lifted into orbit during the mission ‘Long March 6A | Yunhai 3’, on board a Long March 6A space rocket.

The launch took place on Nov. 11, 2022, 10:52 p.m. from Launch Complex 9A.

For more information about the launch, click the button.

Launch to space Long March 6A | Yunhai 3
Long March 6A | Yunhai 3

Agency: N/A

Status: Launch Successful

Launch date: Nov. 11, 2022, 10:52 p.m. UTC

Rocket: Long March 6A

Launch pad: Launch Complex 9A

Location: Taiyuan Satellite Launch Center, People's Republic of China

...

Latest news about this satellite

There are no fresh news available about this satellite. Check back as we update our databases every day.


Newsletter sign-up

Weekly statistics, charts and insights to help you stay on top of the space industry.